COSMOS 1691 DEB, 16271

Orbit data source: Space-Track

COSMOS 1691 DEB, 16271 is space debris in LEO originally from a launch on Wed, 09 Oct 1985 UTC launched from the Plesetsk Missile And Space Complex (PKMTR). Debris objects in space refer to the collection of defunct objects orbiting the Earth. Examples of debris include non-operational satellites, rocket bodies, and fragments generated from explosions, collisions, or faulty payload assembly.

Loading next visibility...
Identifier
16271, 1985-094Q
Orbit
LEO
Country
Flag of CISCIS
Related business
Manufacturer
Unknown
Mission
Spacecraft
Bus & Motor
Unknown
Mass
Unknown
Launch date (UTC)
1985-10-09 (40 years ago)
Launch vehicle
Unknown
Launch site
Plesetsk Missile And Space Complex (PKMTR)
Object type
Payload
Rocket body
Debris
Shape & HBR
Unknown shape, 0.1 m
Radar Cross Section
Small (<0.1 m²)

Expand to show TLE details & history
Last TLE update: 16 hours ago

TLE from 16 hours ago
0 COSMOS 1691 DEB
1 16271U 85094Q   26036.87951147  .00000017  00000-0  33043-4 0  9997
2 16271  82.6114 357.9456 0006847  73.3299 315.1092 12.63027267858938
Epoch: 2026-02-05T21:06Z
TLE epoch observation values (Epoch: 2026-02-05T21:06:29.791Z)
Latitude
28.16671°
Longitude
-90.74215°
Altitude
1,410.028 km
Speed
7.159 km/s
True Right ascension
00h 07m 37s
True Declination
28° 02' 09"
Sunlit
Object was in daylight at epoch
Visualization orbit readout
Latitude
Unknown
Longitude
Unknown
Altitude
Unknown
Speed
Unknown
Apparent Right ascension
Unknown
Apparent Declination
Unknown
Sunlit
N/A
Visualization observer readout
Local Sidereal Time
15:29:23
Azimuth
Unknown
Elevation
Unknown
Doppler factor
Unknown
Orbital elements
Apogee altitude
1,413.124 km
Perigee altitude
1,402.462 km
Semi-major axis
7,785.93 km
Eccentricity
0.00068
Inclination
82.6114°
RAAN
357.9456°
Arg. of periapsis
73.3299°
True anomaly
315.05379°
Mean anomaly
315.1092°
Eccentric anomaly
315.0815°
Mean motion
3.1592 °/min
Orbital period
113.95 mins
BSTAR
0.000033043
Loading maneuver chart data...
Computing Atmospheric mass density...
Loading historical data...
Loading historical data...
Loading historical data...
Loading historical data...
Loading historical data...
Loading historical data...
Loading historical data...

Documentation

Showing up to 5 results
|